This is the latest recevied weather packets stored in our database for station/object CE1RLP-31. If no packets are shown the sender has not sent any weather packets the latest 10 day(s).
| Time | Temp. | Humidity | Pressure | Rain* | Wind** | Luminosity | Snow |
|---|---|---|---|---|---|---|---|
| 1777821760 | 18.89° C | 11% | 1101.1 hPa | - | - | - | - |
| 1777820860 | 18.33° C | 11% | 1101.2 hPa | - | - | - | - |
| 1777819960 | 18.33° C | 11% | 1101.2 hPa | - | - | - | - |
| 1777819060 | 17.78° C | 11% | 1101.2 hPa | - | - | - | - |
| 1777818160 | 16.67° C | 11% | 1101.3 hPa | - | - | - | - |
| 1777817260 | 16.11° C | 11% | 1101.2 hPa | - | - | - | - |
| 1777816360 | 15.56° C | 10% | 1101.2 hPa | - | - | - | - |
| 1777815460 | 15° C | 11% | 1101.2 hPa | - | - | - | - |
| 1777814560 | 13.89° C | 11% | 1101 hPa | - | - | - | - |
| 1777813660 | 13.33° C | 11% | 1100.8 hPa | - | - | - | - |
| 1777812760 | 12.78° C | 10% | 1100.7 hPa | - | - | - | - |
| 1777811860 | 12.22° C | 10% | 1100.7 hPa | - | - | - | - |
| 1777810959 | 12.22° C | 10% | 1100.5 hPa | - | - | - | - |
| 1777810059 | 11.67° C | 10% | 1100.4 hPa | - | - | - | - |
| 1777809159 | 11.11° C | 10% | 1100.2 hPa | - | - | - | - |
| 1777808259 | 10.56° C | 10% | 1100.1 hPa | - | - | - | - |
| 1777807359 | 10.56° C | 10% | 1100.1 hPa | - | - | - | - |
| 1777806459 | 10.56° C | 10% | 1099.9 hPa | - | - | - | - |
| 1777805559 | 10.56° C | 10% | 1099.8 hPa | - | - | - | - |
| 1777804659 | 10.56° C | 10% | 1099.8 hPa | - | - | - | - |
| 1777803759 | 10.56° C | 10% | 1099.7 hPa | - | - | - | - |
| 1777802859 | 10.56° C | 9% | 1099.7 hPa | - | - | - | - |
| 1777801960 | 10.56° C | 9% | 1099.7 hPa | - | - | - | - |
| 1777801060 | 10.56° C | 9% | 1099.7 hPa | - | - | - | - |
| 1777800160 | 10.56° C | 9% | 1099.7 hPa | - | - | - | - |
* Rain since midnight (hover to see other rain measurements)
** Current wind speed in m/s (hover to see current wind gust speed)